GEFSCGP_500_meanwind_006.txt.gz
Wind_Speed
35 35 31 28 29 26 25 23 21 20 16 14 17 23 26 27 29 29 31 33 33 31 30 32 33 33 33 35 38 39 38 37 37 36 35 35 35 35 36 38 39 40 41 43
37 35 28 30 30 28 25 25 23 20 14 14 15 19 25 29 31 32 33 32 28 24 25 29 31 33 34 37 40 39 38 37 36 35 35 36 37 38 39 40 42 43 44 46
35 29 29 31 30 29 26 25 24 22 20 18 18 22 28 31 33 35 33 26 22 21 24 29 31 32 33 36 39 38 37 37 37 37 38 39 40 40 42 44 45 47 49 51
31 28 30 32 32 31 28 22 22 25 29 26 24 26 31 34 36 35 32 26 24 23 26 31 33 32 31 35 36 36 36 38 39 40 41 42 42 44 46 48 50 53 55 57
25 23 28 30 29 29 27 22 22 26 31 35 34 32 36 39 38 35 32 28 27 28 30 33 35 34 34 35 37 38 39 40 42 44 45 46 46 48 50 52 54 56 58 60
24 24 28 28 27 27 25 24 27 30 31 37 39 40 43 44 41 38 35 32 33 34 36 38 37 36 36 38 39 42 43 44 44 46 48 48 50 51 53 55 57 58 60 61
25 26 27 28 29 29 29 30 32 34 36 37 34 40 43 43 42 41 37 35 37 38 40 40 38 37 37 39 42 46 47 46 47 48 50 51 52 54 56 57 59 60 61 62
25 25 25 26 26 24 27 29 31 33 32 32 35 40 39 39 39 37 37 38 39 39 40 41 41 39 39 40 45 49 48 47 50 52 52 54 55 57 58 59 61 61 62 62
23 26 23 27 25 26 27 25 26 32 32 32 33 34 33 32 34 35 38 39 39 38 37 38 40 40 41 43 48 50 48 49 52 55 55 55 57 58 60 61 61 62 62 56
24 23 23 26 29 30 30 26 26 31 33 34 35 36 35 33 33 33 34 34 33 33 34 36 39 41 43 47 50 51 50 51 54 56 56 57 59 61 61 61 61 61 52 43
35 32 24 27 31 28 28 28 29 31 34 34 32 33 34 37 40 41 41 41 38 35 36 37 39 42 46 49 51 51 52 53 55 56 58 60 62 62 61 60 58 50 40 37
37 37 33 29 31 27 28 28 29 32 34 35 35 32 32 36 41 44 44 43 42 39 38 37 38 44 48 48 48 50 52 54 56 59 61 62 63 61 60 56 48 39 36 36
40 40 40 33 31 32 31 29 29 31 33 37 39 37 35 38 41 43 45 45 44 43 40 38 41 44 43 42 44 48 52 56 59 62 62 62 61 60 56 48 40 36 36 37
47 45 43 41 36 36 39 38 35 34 37 40 42 37 34 36 39 43 47 48 48 44 43 43 40 36 36 40 45 50 55 60 63 62 61 59 59 56 47 40 37 36 37 39
53 52 50 47 44 43 42 43 43 43 43 42 38 36 38 42 43 45 46 46 45 44 41 34 31 33 37 42 48 54 60 62 61 59 57 57 54 45 38 36 36 37 39 42
56 59 58 56 52 50 48 47 47 48 49 48 46 43 44 45 45 45 45 43 41 38 33 30 31 35 40 46 52 58 60 59 57 56 55 52 44 38 36 37 38 40 42 46
50 56 60 63 62 60 57 53 53 54 54 55 54 51 48 47 45 46 47 46 44 38 31 30 34 39 45 50 54 56 55 55 53 53 50 43 38 37 37 39 41 43 46 48
46 50 54 59 61 64 62 61 61 60 60 59 58 57 54 53 50 51 49 45 43 37 34 40 42 44 47 50 52 52 51 50 50 49 43 38 36 37 39 41 44 47 49 51
46 47 50 53 56 58 57 57 56 56 59 61 61 61 61 58 57 55 54 49 43 42 43 43 44 46 47 48 48 48 47 46 46 41 36 35 37 39 41 43 46 48 50 51
43 45 47 49 52 54 52 50 48 48 50 52 54 56 58 59 59 55 49 44 42 43 43 43 44 45 45 45 45 43 43 43 39 34 33 35 37 40 42 45 47 49 50 51
33 37 40 44 47 47 46 45 42 42 41 37 36 38 40 42 40 39 39 40 40 41 41 40 40 40 41 41 39 40 41 37 32 31 33 35 38 41 43 45 47 48 50 52
25 29 34 38 40 41 41 40 38 36 35 34 34 32 29 29 30 32 34 36 37 36 35 34 34 35 35 35 37 38 34 30 29 30 33 36 39 41 43 44 46 48 50 50
23 25 28 31 34 35 37 38 37 35 34 33 32 29 26 26 26 26 27 29 29 29 30 31 32 32 32 34 34 30 26 25 28 31 34 37 39 41 43 43 45 47 47 46
24 25 26 26 27 28 29 31 32 32 29 27 22 19 19 18 19 21 23 24 25 27 29 31 31 30 31 30 26 22 22 25 28 31 35 37 39 41 42 42 43 44 43 42
21 21 21 18 16 17 18 21 23 24 21 15 9 8 11 14 17 19 20 22 25 27 28 28 26 27 26 22 18 19 21 25 28 32 34 37 39 41 41 40 42 42 41 40
15 16 16 13 11 12 11 12 13 11 10 7 8 11 14 16 18 18 20 22 24 24 23 23 23 22 18 14 15 18 21 25 29 32 34 37 39 41 40 40 41 41 39 37

GEFSCGP_500_meanwind_012.txt.gz
Wind_Speed
35 35 33 31 34 37 37 37 35 31 32 37 38 37 34 34 32 31 27 21 18 17 18 21 23 22 21 22 24 26 29 31 31 32 32 33 34 34 34 34 34 36 37 39
38 36 32 34 38 40 40 40 38 33 34 40 41 41 38 35 34 31 28 26 21 18 20 23 24 24 24 25 27 30 33 34 35 36 36 37 38 38 37 37 37 39 41 43
37 34 34 38 41 43 42 41 38 35 36 42 43 44 41 38 35 31 27 24 20 19 22 25 27 27 27 28 30 33 35 37 37 38 39 39 40 41 41 41 42 44 46 48
35 32 33 37 40 42 42 39 38 37 39 42 45 48 44 42 38 33 27 23 21 23 25 28 29 30 31 32 33 36 38 39 39 39 41 42 43 44 44 44 45 47 50 52
32 28 31 35 36 39 38 36 38 39 41 44 46 49 47 45 42 34 27 24 25 27 29 30 31 32 33 34 36 38 40 40 40 41 42 44 45 46 47 47 48 51 54 57
34 31 32 33 34 37 37 37 40 41 43 46 45 47 49 44 39 34 30 28 29 31 32 32 32 34 35 37 39 41 42 42 42 42 44 46 47 48 48 49 51 54 58 61
32 32 32 32 32 34 36 36 38 41 43 45 41 45 45 41 37 34 33 34 34 34 34 34 34 36 38 39 41 43 45 45 44 44 47 48 49 50 50 51 54 58 61 63
33 31 28 30 30 29 33 34 37 40 42 43 41 44 40 38 36 36 38 38 38 39 38 38 38 38 39 41 43 45 46 47 47 48 50 51 51 50 50 52 57 60 62 61
36 33 27 27 27 28 29 32 34 39 42 44 43 42 39 36 35 35 35 36 38 39 38 36 35 35 37 40 44 46 47 49 50 51 52 53 52 50 51 55 59 62 61 59
36 34 28 27 27 27 28 29 35 40 42 45 44 42 38 33 31 31 32 33 34 35 34 33 33 34 38 41 43 46 50 52 53 53 53 53 51 50 53 56 60 59 57 56
37 35 30 28 26 25 26 29 33 37 41 45 47 43 35 32 30 29 29 29 31 32 35 37 37 38 40 43 45 48 52 54 54 54 52 50 48 49 52 56 57 55 54 55
40 38 35 32 31 28 29 31 33 36 38 42 46 42 36 34 32 31 31 31 31 32 34 36 38 39 41 44 47 50 53 54 53 51 48 46 47 49 53 54 52 52 53 52
42 42 40 36 35 34 33 34 35 38 40 42 44 42 36 35 35 34 34 34 34 35 37 39 41 43 44 46 49 51 50 46 43 43 45 47 48 51 52 51 51 52 51 49
45 45 44 42 40 38 36 36 37 39 41 44 45 44 40 37 36 35 35 35 36 38 40 42 44 46 48 46 44 42 41 42 46 48 48 48 49 50 50 50 51 50 48 47
52 51 49 48 47 45 43 41 40 40 41 43 45 45 44 43 41 39 38 39 39 40 41 43 45 48 48 45 41 40 42 48 51 50 48 47 48 48 48 49 48 47 46 46
56 58 58 56 55 54 51 48 47 46 45 45 45 45 46 47 46 45 44 43 43 45 46 48 50 51 51 46 41 42 46 49 48 46 45 45 46 47 47 47 46 45 46 47
52 56 60 62 62 62 60 56 55 54 54 53 52 50 49 49 49 48 47 46 48 50 51 53 54 53 50 46 46 48 49 46 43 43 43 44 46 46 45 44 44 45 47 49
44 49 54 58 60 63 61 60 60 60 59 60 60 58 57 55 54 53 51 51 53 55 57 58 56 54 51 50 49 48 44 41 40 41 43 44 45 44 43 43 44 46 49 51
40 43 46 49 53 56 56 56 56 55 54 54 55 56 57 56 57 56 55 55 56 57 57 55 52 48 45 44 43 40 38 38 40 42 43 42 41 41 42 43 46 49 51 52
39 42 44 47 50 52 52 52 52 51 49 47 48 49 51 52 52 52 51 51 51 50 49 46 44 40 36 36 35 34 36 38 41 41 40 39 39 40 43 45 48 49 51 51
34 36 39 42 45 47 48 48 48 46 44 43 43 43 45 46 46 47 47 46 44 43 40 37 32 28 29 30 31 33 36 38 39 38 36 36 39 41 44 47 48 49 49 49
29 31 32 33 34 34 37 37 38 38 36 35 35 36 37 38 39 39 39 37 36 35 33 27 23 24 25 28 31 33 35 35 35 34 35 37 40 43 45 46 47 47 46 46
29 29 28 28 27 27 27 27 28 28 27 27 27 29 30 30 30 30 28 28 29 28 23 20 19 21 24 27 30 32 32 32 31 32 35 38 41 43 44 44 44 43 43 42
30 30 29 27 25 26 25 25 25 25 25 24 22 22 23 22 21 21 23 25 24 20 17 16 17 20 23 26 28 28 28 28 29 32 36 39 41 41 41 41 40 40 40 39
28 29 28 26 26 25 25 24 23 23 22 20 17 16 15 15 17 18 18 17 15 13 13 14 17 20 23 25 24 24 24 26 29 33 36 38 39 39 38 38 37 37 37 36
20 21 20 21 22 22 21 19 18 16 13 12 12 11 12 13 14 14 13 12 11 10 11 13 16 19 21 20 19 20 23 27 31 34 36 37 36 36 36 36 36 35 35 33

GEFSCGP_500_meanwind_018.txt.gz
Wind_Speed
26 27 25 25 29 34 37 37 39 42 44 41 44 46 46 44 41 39 37 35 34 32 32 30 29 28 27 26 26 27 26 25 23 21 21 23 23 24 25 27 28 28 30 31
25 25 26 30 31 33 35 36 38 39 43 44 48 50 49 47 44 42 41 39 37 36 33 31 32 32 32 31 32 32 33 30 27 25 25 26 27 28 30 32 33 34 35 36
22 24 26 29 32 33 35 36 37 39 41 43 47 48 48 48 46 44 43 42 40 37 34 32 34 36 36 36 35 36 37 35 33 31 30 30 31 32 35 38 39 41 42 43
18 20 23 27 30 32 34 36 37 39 40 41 46 47 41 45 45 42 41 40 39 38 35 34 34 37 37 38 38 39 39 39 36 35 34 35 35 37 40 43 45 47 48 50
18 19 21 24 28 31 33 36 37 39 40 42 46 47 42 43 46 40 39 38 37 37 36 35 36 37 39 40 40 41 41 40 39 38 38 38 39 41 45 47 49 52 54 55
21 21 21 22 25 29 30 32 34 36 39 43 42 44 41 34 39 36 36 36 36 38 38 39 40 42 43 43 43 42 42 42 42 41 41 41 43 45 47 49 51 54 55 56
25 25 23 23 25 27 28 29 31 32 34 36 34 39 37 33 35 35 34 34 34 35 36 38 40 42 43 44 44 45 45 44 44 44 43 43 45 47 49 51 53 55 55 55
30 28 26 25 25 27 29 30 31 30 26 25 26 32 29 32 33 33 32 32 32 32 32 34 35 38 40 42 44 46 46 45 44 43 43 45 48 50 52 53 54 54 54 53
31 28 27 26 26 28 29 30 29 31 32 32 30 29 31 32 31 29 29 30 30 30 30 30 31 32 34 37 40 41 41 41 41 42 44 46 49 50 52 52 52 51 50 50
33 30 28 25 27 30 29 29 30 32 31 32 31 28 25 24 24 25 25 26 26 26 26 26 27 28 30 32 34 36 38 38 40 41 42 44 47 48 50 51 49 48 50 52
34 32 29 27 27 26 30 31 31 29 27 27 28 25 24 27 26 24 24 24 24 24 25 26 26 27 28 30 32 34 36 37 39 40 42 45 46 48 50 50 50 51 51 52
36 33 31 29 30 28 31 32 30 30 28 28 29 26 27 29 27 25 25 24 24 25 27 28 29 30 30 32 34 35 37 38 40 42 44 47 49 51 51 52 52 51 50 51
38 36 33 29 29 32 34 36 35 35 33 31 30 27 29 29 28 27 27 27 27 28 30 31 32 33 34 36 37 39 40 41 42 45 48 49 50 51 52 51 51 50 50 51
39 39 37 31 28 35 35 36 38 38 35 32 30 29 32 35 31 29 29 30 30 32 34 35 37 38 39 40 41 43 44 45 47 48 49 49 49 50 50 50 49 49 50 52
41 42 42 41 41 41 39 39 39 39 38 37 35 34 35 38 34 33 33 32 33 34 36 38 39 41 42 44 45 46 47 49 49 49 49 49 49 49 50 49 48 50 52 53
42 43 44 44 44 44 44 43 43 43 42 42 42 42 44 44 40 40 40 39 39 41 42 43 45 46 47 48 49 50 50 49 47 47 48 49 49 49 48 48 49 51 51 51
40 41 42 43 44 44 45 46 47 47 48 50 50 50 51 49 48 48 48 47 47 48 49 50 51 51 51 51 51 49 47 45 45 49 50 49 48 46 46 47 49 49 49 49
37 38 39 40 41 42 43 43 41 43 47 49 51 53 53 53 52 51 51 50 49 49 48 48 47 47 48 48 47 45 45 47 49 51 50 47 44 44 46 47 47 48 48 49
34 34 35 36 36 38 39 38 37 38 41 42 44 46 47 48 47 47 47 46 46 45 43 42 42 42 43 43 44 45 48 50 51 49 45 42 41 43 45 45 46 47 48 49
29 30 31 33 34 36 39 37 37 37 39 39 39 41 42 43 44 44 44 44 43 42 40 39 39 39 39 40 44 48 51 51 48 43 38 38 40 42 42 43 45 46 47 48
27 29 30 32 34 36 36 36 36 34 34 34 35 36 37 39 40 41 41 40 39 38 37 36 35 35 37 41 48 51 50 44 38 34 35 37 38 39 41 43 44 45 46 46
26 27 28 29 30 33 33 33 33 32 31 30 30 30 31 31 32 34 34 34 33 32 30 30 31 33 38 45 48 44 37 32 31 31 33 35 36 38 41 42 43 44 44 44
24 25 26 28 30 31 31 31 30 28 25 24 24 24 24 24 25 25 25 26 25 26 26 27 30 35 40 41 37 31 28 27 29 30 32 34 36 39 40 41 42 42 42 40
24 25 27 28 30 31 31 31 29 26 23 21 20 20 20 20 20 19 19 21 22 23 25 27 30 33 31 28 24 23 24 25 27 29 32 35 37 38 40 41 40 39 37 33
23 24 25 26 28 28 28 28 26 24 21 19 18 17 16 16 16 17 17 17 18 21 24 25 25 23 20 18 19 20 22 24 27 31 33 35 37 39 39 39 37 33 29 26
20 19 20 20 22 22 21 21 19 18 16 15 14 12 11 12 13 14 14 16 17 17 17 15 13 12 13 15 16 19 22 26 29 31 34 36 38 38 37 34 29 25 23 22

GEFSCGP_500_meanwind_024.txt.gz
Wind_Speed
28 29 27 25 24 23 23 21 19 20 18 22 30 33 32 25 28 32 33 32 31 31 33 36 40 40 34 28 27 28 31 31 33 35 37 38 39 40 40 41 39 36 36 34
29 27 23 24 22 21 23 26 26 25 24 26 30 34 34 33 32 31 35 37 36 33 34 38 43 46 43 38 33 32 34 35 37 39 40 42 43 44 44 45 42 40 39 37
24 18 17 21 22 21 24 26 28 29 29 31 32 34 37 41 38 35 37 41 41 39 38 41 45 48 46 40 37 35 36 38 40 42 43 45 47 47 47 46 44 44 42 39
20 19 17 19 20 21 24 24 26 28 30 32 32 35 36 36 34 30 31 36 39 40 39 40 45 48 46 43 40 38 38 40 42 43 45 47 48 48 48 47 46 46 43 39
17 17 20 20 19 20 21 20 21 23 27 31 33 37 36 31 29 30 30 32 36 40 38 38 41 44 44 42 40 39 39 41 43 45 46 47 49 48 48 47 47 47 45 43
20 17 18 18 18 19 18 19 21 23 24 28 26 29 32 29 28 29 28 28 34 35 35 37 37 37 38 39 39 39 40 42 44 46 46 47 48 48 48 49 49 48 47 45
21 21 21 20 19 19 19 18 18 18 20 20 17 21 23 20 21 24 26 29 33 35 37 38 38 36 36 37 38 39 41 43 45 46 47 47 48 49 49 49 48 48 48 48
21 22 21 23 24 21 20 20 19 18 18 18 16 17 16 17 20 23 28 32 36 40 40 40 39 37 35 36 37 39 40 43 45 46 47 48 48 48 48 48 47 47 49 49
21 19 20 24 25 25 22 22 20 21 22 24 23 23 22 20 22 25 27 29 30 32 31 30 32 33 34 35 37 38 39 40 42 43 44 46 46 46 46 47 47 48 50 51
30 28 20 17 22 25 23 21 21 24 25 27 25 22 20 22 22 23 26 26 28 29 27 28 29 31 33 35 35 36 36 38 39 40 42 43 44 44 45 45 47 49 51 54
35 35 29 20 20 21 22 23 23 25 25 25 24 20 21 24 24 24 22 22 29 32 33 34 32 30 32 33 34 35 36 38 40 41 43 44 46 46 47 48 50 52 54 56
36 37 37 33 27 23 25 25 24 26 27 27 28 26 26 30 29 29 31 36 41 41 37 34 31 30 31 33 34 36 38 40 41 43 44 46 47 48 49 50 53 55 57 57
40 41 40 35 31 27 26 27 28 29 29 29 28 26 28 32 32 33 37 41 40 36 30 28 30 32 33 34 36 38 40 42 44 45 46 48 50 51 52 54 56 58 58 59
38 40 40 35 26 25 32 32 30 28 30 31 29 29 34 36 34 37 40 41 34 22 21 25 30 33 35 37 39 41 43 45 47 49 50 52 54 55 56 57 58 59 61 61
39 41 41 40 37 33 30 31 32 33 34 32 30 28 34 35 36 39 41 41 38 36 34 34 36 39 41 43 44 46 48 50 52 53 54 55 55 56 57 58 60 61 63 64
37 38 39 39 39 40 40 39 36 32 29 29 31 34 42 46 45 45 46 46 49 50 50 48 47 47 47 48 49 51 52 54 55 55 55 55 55 57 59 61 63 65 65 64
34 35 36 37 37 38 41 41 41 42 42 43 44 47 49 49 48 49 51 53 54 54 54 53 52 50 50 49 50 51 52 53 54 54 54 54 56 58 61 65 66 63 60 57
33 34 34 34 35 39 36 35 39 42 46 47 49 49 49 48 46 47 48 50 52 53 53 53 51 50 49 49 49 49 50 50 51 51 52 55 57 59 61 63 62 59 52 49
32 32 32 33 33 34 30 35 37 40 44 44 44 44 44 45 45 45 46 48 49 50 51 51 50 49 48 47 47 48 48 48 48 49 52 54 56 59 61 59 55 50 46 45
29 29 30 30 31 31 33 35 36 36 40 39 39 38 39 40 42 43 44 45 46 47 47 47 47 46 46 45 45 44 44 45 47 49 52 55 57 58 56 52 48 44 44 45
25 25 26 27 29 30 33 34 35 37 40 39 37 36 36 38 39 40 41 42 42 43 43 43 43 42 40 40 39 40 41 43 46 50 52 53 51 48 45 43 42 42 43 44
26 25 24 26 28 31 33 33 34 35 35 36 35 35 36 36 37 37 38 38 38 38 37 37 35 34 33 33 35 37 40 44 46 47 47 44 42 41 40 39 40 41 42 42
25 26 26 27 27 30 31 32 33 33 34 34 34 34 35 35 34 34 33 33 32 32 31 30 29 28 29 31 33 36 39 41 40 39 37 36 35 37 38 39 39 39 38 36
22 23 24 26 28 31 32 32 32 32 33 33 33 33 33 32 31 30 29 28 27 27 27 26 25 26 28 30 32 34 34 32 31 31 32 33 34 35 36 37 36 34 31 28
21 22 22 24 27 30 31 30 30 30 30 30 30 30 29 28 26 25 24 23 23 22 22 22 23 25 26 26 25 25 26 27 28 30 32 33 34 34 33 32 29 26 23 21
22 22 22 23 25 26 27 26 26 26 26 25 24 23 22 21 20 19 19 18 18 18 18 19 19 19 19 20 21 23 24 26 28 30 31 32 31 29 27 24 21 19 18 18